DLH114 EDDF-EDDM

Flight info

Callsign DLH114
Flight time N/A
Altitude 23000
Route CINDY8S CINDY Z74 HAREM T104 ROKIL ROKIL1B
Aircraft A320/M-SDE3FGHIRWY/LB1

Departure

Time 2026-04-14 21:17
Airport Frankfurt Main Airport (EDDF)

Arrival

Time N/A
Airport Munich Airport (EDDM)
Time Latitude Longitude Altitude Speed Heading
2026-04-14 20:53 50.04807 8.56915 346 ft 0 kts 295°
2026-04-14 21:05 50.04797 8.56946 352 ft 4 kts 295°
2026-04-14 21:06 50.04786 8.56985 353 ft 4 kts 289°
2026-04-14 21:06 50.04782 8.57021 348 ft 4 kts 243°
2026-04-14 21:06 50.04787 8.57032 353 ft 0 kts 205°
2026-04-14 21:08 50.04786 8.57031 353 ft 2 kts 205°
2026-04-14 21:08 50.04710 8.56976 348 ft 16 kts 204°
2026-04-14 21:09 50.04668 8.56947 353 ft 0 kts 204°
2026-04-14 21:09 50.04665 8.56945 353 ft 4 kts 204°
2026-04-14 21:09 50.04633 8.56925 350 ft 4 kts 199°
2026-04-14 21:10 50.04573 8.56900 345 ft 14 kts 194°
2026-04-14 21:10 50.04460 8.56859 345 ft 17 kts 193°
2026-04-14 21:10 50.04343 8.56827 346 ft 17 kts 191°
2026-04-14 21:10 50.04250 8.56776 349 ft 9 kts 232°
2026-04-14 21:11 50.04222 8.56667 351 ft 15 kts 249°
2026-04-14 21:11 50.04178 8.56478 350 ft 23 kts 250°
2026-04-14 21:11 50.04121 8.56245 350 ft 23 kts 250°
2026-04-14 21:11 50.04063 8.56000 355 ft 24 kts 250°
2026-04-14 21:12 50.04004 8.55761 352 ft 23 kts 249°
2026-04-14 21:12 50.03949 8.55521 351 ft 24 kts 250°
2026-04-14 21:12 50.03888 8.55265 351 ft 26 kts 249°
2026-04-14 21:12 50.03823 8.54998 351 ft 25 kts 249°
2026-04-14 21:13 50.03768 8.54770 347 ft 20 kts 251°
2026-04-14 21:13 50.03730 8.54608 350 ft 11 kts 250°
2026-04-14 21:13 50.03709 8.54521 348 ft 9 kts 249°
2026-04-14 21:14 50.03681 8.54407 346 ft 4 kts 249°
2026-04-14 21:14 50.03646 8.54261 351 ft 19 kts 250°
2026-04-14 21:14 50.03597 8.54054 348 ft 21 kts 249°
2026-04-14 21:14 50.03544 8.53828 353 ft 23 kts 249°
2026-04-14 21:15 50.03484 8.53581 350 ft 25 kts 250°
2026-04-14 21:15 50.03421 8.53316 348 ft 27 kts 249°
2026-04-14 21:15 50.03354 8.53041 350 ft 28 kts 250°
2026-04-14 21:15 50.03287 8.52763 351 ft 26 kts 250°
2026-04-14 21:16 50.03212 8.52599 346 ft 19 kts 187°
2026-04-14 21:16 50.02884 8.52600 345 ft 84 kts 180°
2026-04-14 21:16 50.02078 8.52608 355 ft 145 kts 179°
2026-04-14 21:16 50.00941 8.52577 622 ft 170 kts 183°
2026-04-14 21:17 49.99753 8.52469 1375 ft 173 kts 180°
2026-04-14 21:17 49.98510 8.52457 1939 ft 188 kts 176°
2026-04-14 21:17 49.97170 8.52873 2323 ft 209 kts 150°
2026-04-14 21:17 49.96033 8.54369 2958 ft 220 kts 122°
2026-04-14 21:18 49.95523 8.55734 3528 ft 223 kts 117°
2026-04-14 21:18 49.94764 8.57871 3894 ft 226 kts 118°
2026-04-14 21:18 49.94150 8.60103 3992 ft 226 kts 102°
2026-04-14 21:18 49.93974 8.62680 4008 ft 250 kts 93°
2026-04-14 21:19 49.93872 8.65404 4010 ft 254 kts 94°
2026-04-14 21:19 49.93561 8.67877 4007 ft 255 kts 109°
2026-04-14 21:19 49.92323 8.70959 4079 ft 262 kts 134°
2026-04-14 21:19 49.90854 8.72702 5020 ft 265 kts 144°
2026-04-14 21:20 49.88096 8.76472 7009 ft 270 kts 123°
2026-04-14 21:20 49.87135 8.79049 7897 ft 275 kts 118°
2026-04-14 21:20 49.86536 8.80744 8465 ft 279 kts 119°
2026-04-14 21:21 49.85249 8.84341 9650 ft 287 kts 120°
2026-04-14 21:21 49.84258 8.87074 10462 ft 294 kts 120°
2026-04-14 21:21 49.83573 8.88958 10699 ft 310 kts 120°
2026-04-14 21:21 49.82084 8.93047 11146 ft 339 kts 120°
2026-04-14 21:22 49.80927 8.96223 11816 ft 347 kts 119°
2026-04-14 21:22 49.80044 8.98652 12407 ft 350 kts 118°
2026-04-14 21:22 49.78529 9.02808 13375 ft 356 kts 118°
2026-04-14 21:22 49.77304 9.06160 14140 ft 360 kts 118°
2026-04-14 21:23 49.76216 9.09656 14823 ft 362 kts 109°
2026-04-14 21:23 49.75720 9.12182 15293 ft 364 kts 103°
2026-04-14 21:23 49.74746 9.17175 16204 ft 370 kts 112°
2026-04-14 21:23 49.73498 9.20670 16860 ft 375 kts 124°
2026-04-14 21:24 49.71810 9.23859 17553 ft 379 kts 130°
2026-04-14 21:24 49.70094 9.26876 18212 ft 382 kts 130°
2026-04-14 21:24 49.68337 9.29975 18828 ft 386 kts 130°
2026-04-14 21:24 49.66563 9.33108 19375 ft 389 kts 130°
2026-04-14 21:25 49.64773 9.36271 19933 ft 393 kts 130°
2026-04-14 21:25 49.62965 9.39464 20476 ft 397 kts 130°
2026-04-14 21:25 49.61138 9.42680 21001 ft 401 kts 130°
2026-04-14 21:25 49.59287 9.45930 21528 ft 405 kts 130°
2026-04-14 21:26 49.57423 9.49203 22070 ft 408 kts 130°
2026-04-14 21:26 49.55544 9.52499 22602 ft 411 kts 130°
2026-04-14 21:26 49.53648 9.55824 23093 ft 415 kts 130°
2026-04-14 21:26 49.51745 9.59158 23230 ft 416 kts 130°
2026-04-14 21:27 49.49829 9.62502 23253 ft 416 kts 130°
2026-04-14 21:27 49.47920 9.65833 23251 ft 416 kts 130°
2026-04-14 21:27 49.46008 9.69164 23249 ft 416 kts 130°
2026-04-14 21:27 49.44096 9.72494 23249 ft 415 kts 130°
2026-04-14 21:28 49.42188 9.75816 23248 ft 416 kts 130°
2026-04-14 21:28 49.40300 9.79099 23247 ft 416 kts 130°
2026-04-14 21:28 49.38385 9.82426 23247 ft 415 kts 130°
2026-04-14 21:28 49.36469 9.85749 23252 ft 415 kts 131°
2026-04-14 21:29 49.34559 9.89051 23246 ft 413 kts 131°
2026-04-14 21:29 49.32625 9.92383 23247 ft 412 kts 131°
2026-04-14 21:29 49.30744 9.95620 23246 ft 412 kts 131°
2026-04-14 21:29 49.28838 9.98893 23248 ft 412 kts 131°
2026-04-14 21:30 49.26925 10.02178 23249 ft 412 kts 131°
2026-04-14 21:30 49.25021 10.05448 23250 ft 412 kts 131°
2026-04-14 21:30 49.23114 10.08715 23252 ft 412 kts 131°
2026-04-14 21:30 49.21206 10.11980 23267 ft 412 kts 131°
2026-04-14 21:31 49.19295 10.15244 23276 ft 412 kts 131°
2026-04-14 21:31 49.17384 10.18502 23276 ft 412 kts 131°
2026-04-14 21:31 49.15604 10.21537 23274 ft 412 kts 131°
2026-04-14 21:31 49.14209 10.23921 23274 ft 411 kts 133°
2026-04-14 21:32 49.12286 10.27134 23277 ft 409 kts 134°
2026-04-14 21:32 49.10334 10.30297 23287 ft 409 kts 134°
2026-04-14 21:32 49.07749 10.34416 23288 ft 408 kts 135°
2026-04-14 21:32 49.06404 10.36550 23288 ft 408 kts 135°
2026-04-14 21:33 49.04439 10.39668 23283 ft 408 kts 135°
2026-04-14 21:33 49.02141 10.43327 23285 ft 408 kts 134°
2026-04-14 21:33 49.00519 10.45921 23297 ft 408 kts 134°
2026-04-14 21:33 48.98566 10.49051 23296 ft 408 kts 134°
2026-04-14 21:34 48.96608 10.52182 23296 ft 408 kts 134°
2026-04-14 21:34 48.94245 10.55950 23172 ft 404 kts 135°
2026-04-14 21:34 48.92718 10.58377 22954 ft 399 kts 134°
2026-04-14 21:34 48.90806 10.61410 22690 ft 396 kts 134°
2026-04-14 21:35 48.88900 10.64430 22419 ft 394 kts 134°
2026-04-14 21:35 48.87009 10.67429 22154 ft 393 kts 134°
2026-04-14 21:35 48.85122 10.70422 21891 ft 391 kts 134°
2026-04-14 21:35 48.83252 10.73387 21626 ft 389 kts 134°
2026-04-14 21:36 48.81380 10.76351 21351 ft 385 kts 134°
2026-04-14 21:36 48.79539 10.79254 20901 ft 379 kts 134°
2026-04-14 21:36 48.77717 10.82119 20418 ft 376 kts 134°
2026-04-14 21:36 48.75911 10.84952 19941 ft 373 kts 134°
2026-04-14 21:37 48.74111 10.87769 19442 ft 371 kts 134°
2026-04-14 21:37 48.72320 10.90566 18951 ft 369 kts 134°
2026-04-14 21:37 48.70537 10.93351 18441 ft 368 kts 134°
2026-04-14 21:37 48.68763 10.96123 17907 ft 366 kts 135°
2026-04-14 21:38 48.66999 10.98869 17411 ft 363 kts 135°
2026-04-14 21:38 48.65243 11.01599 16918 ft 361 kts 135°
2026-04-14 21:38 48.63520 11.04277 16419 ft 359 kts 135°
2026-04-14 21:38 48.61785 11.06968 15947 ft 357 kts 135°
2026-04-14 21:39 48.60052 11.09651 15459 ft 355 kts 135°
2026-04-14 21:39 48.58323 11.12292 14980 ft 353 kts 138°
2026-04-14 21:39 48.56385 11.14514 14594 ft 348 kts 146°
2026-04-14 21:39 48.54493 11.16796 14131 ft 346 kts 133°
2026-04-14 21:40 48.53116 11.19729 13683 ft 342 kts 116°
2026-04-14 21:40 48.52387 11.23114 13218 ft 339 kts 99°
2026-04-14 21:40 48.52324 11.26656 12746 ft 336 kts 87°
2026-04-14 21:40 48.52345 11.30175 12280 ft 333 kts 89°
2026-04-14 21:41 48.52477 11.33653 11813 ft 330 kts 85°
2026-04-14 21:41 48.52658 11.37092 11360 ft 328 kts 85°
2026-04-14 21:41 48.52841 11.40499 10924 ft 325 kts 85°
2026-04-14 21:41 48.53022 11.43872 10595 ft 318 kts 85°
2026-04-14 21:42 48.53197 11.47131 10465 ft 306 kts 85°
2026-04-14 21:42 48.53364 11.50264 10343 ft 294 kts 85°
2026-04-14 21:42 48.53524 11.53250 10192 ft 285 kts 85°
2026-04-14 21:42 48.53681 11.56204 9877 ft 281 kts 85°
2026-04-14 21:43 48.53836 11.59130 9509 ft 279 kts 85°
2026-04-14 21:43 48.53990 11.62039 9151 ft 277 kts 85°
2026-04-14 21:43 48.54143 11.64923 8760 ft 275 kts 85°
2026-04-14 21:43 48.54294 11.67797 8373 ft 274 kts 85°
2026-04-14 21:44 48.54444 11.70655 7993 ft 272 kts 85°
2026-04-14 21:44 48.54593 11.73493 7617 ft 271 kts 85°
2026-04-14 21:44 48.54739 11.76276 7243 ft 270 kts 85°
2026-04-14 21:44 48.54886 11.79085 6874 ft 268 kts 85°
2026-04-14 21:45 48.54936 11.80034 6752 ft 267 kts 85°